Station PTIT2 - 8779770 - Port Isabel, TX Image indicating link to RSS feed of recent meteorological observations for station PTIT2


Conditions at PTIT2 as of
(1:30 am CDT)
0630 GMT on 05/20/2024:
     

Click on the graph icon in the table below to see a time series plot of the last five days of that observation.

5-day plot - Wind Direction Wind Direction (WDIR):ESE ( 120 deg true )
5-day plot - Wind Speed Wind Speed (WSPD): 8.9 kts
5-day plot - Wind Gust Wind Gust (GST): 13.0 kts
5-day plot - Atmospheric Pressure Atmospheric Pressure (PRES):29.82 in
5-day plot - Air Temperature Air Temperature (ATMP): 82.6 °F
5-day plot - Water Temperature Water Temperature (WTMP): 86.9 °F
5-day plot - Wind Speed at 10 Meters Wind Speed at 10 meters (WSPD10M): 9.7 kts
5-day plot - Wind Speed at 20 Meters Wind Speed at 20 meters (WSPD20M): 9.7 kts
5-day plot -  Wind Speed, Wind Gust and Atmospheric Pressure Combined plot of Wind Speed, Gust, and Air Pressure
NOS Water Level Observation Network Water Level
Previous observations
TIME
(CDT)
5-day plot - Wind Direction
WDIR
 
5-day plot - Wind Speed
WSPD
kts
5-day plot - Wind Gust
GST
kts
5-day plot - Wave Height
WVHT
ft
5-day plot - Dominant Wave Period
DPD
sec
5-day plot - Average Wave Period
APD
sec
5-day plot - Mean Wave Direction
MWD
 
5-day plot - Atmospheric Pressure
PRES
in
5-day plot - Pressure Tendency
PTDY
in
5-day plot - Air Temperature
ATMP
°F
5-day plot - Water Temperature
WTMP
°F
5-day plot - Dew Point
DEWP
°F
5-day plot - Salinity
SAL
psu
5-day plot - Visibility
VIS
nmi
5-day plot - Tide (above MLLW)
TIDE
ft
2024-05-20 01:24 amESE 9.9 15.9----29.82- 82.4 86.9----
2024-05-20 01:18 amESE 11.1 14.0----29.82- 82.4 86.9----
2024-05-20 01:12 am SE 13.0 15.9----29.83- 82.4 86.9----
2024-05-20 01:06 amESE 8.9 12.0----29.83- 82.6 86.9----
2024-05-20 01:00 amESE 8.0 13.0----29.83+0.00 82.4 87.1----
2024-05-20 12:54 amESE 11.1 15.9----29.83- 82.4 87.1----
2024-05-20 12:48 amESE 8.9 13.0----29.83- 82.6 87.1----
2024-05-20 12:42 amESE 8.9 14.0----29.83- 82.6 87.1----
2024-05-20 12:36 amESE 11.1 15.9----29.83- 82.4 87.1----
2024-05-20 12:30 amESE 9.9 14.0----29.83- 82.8 87.1----
2024-05-20 12:24 amESE 14.0 15.0----29.83- 82.6 87.1----
2024-05-20 12:18 am-------29.83-- 87.3----
2024-05-20 12:12 am-------29.83-- 87.3----
2024-05-20 12:06 am-------29.84-- 87.3----
2024-05-20 12:00 am E 13.0 15.9----29.84+0.04 82.6 87.3----
2024-05-19 11:54 pmESE 12.0 14.0----29.84- 82.6 87.3----
2024-05-19 11:48 pm E 14.0 15.9----29.85- 82.6 87.4----
2024-05-19 11:42 pm E 12.0 14.0----29.85- 82.8 87.4----
2024-05-19 11:36 pm E 11.1 15.9----29.85- 82.8 87.4----
2024-05-19 11:30 pm E 12.0 14.0----29.85- 82.8 87.4----
2024-05-19 11:24 pm E 11.1 14.0----29.85- 82.6 87.4----
2024-05-19 11:18 pm E 12.0 14.0----29.85- 82.4 87.6----
2024-05-19 11:12 pm E 8.9 14.0----29.85- 82.8 87.6----
2024-05-19 11:06 pm E 9.9 14.0----29.85- 82.8 87.6----
2024-05-19 11:00 pm E 9.9 12.0----29.85+0.06 82.8 87.6----
2024-05-19 10:54 pm E 12.0 15.9----29.84- 82.8 87.8----
2024-05-19 10:48 pm E 11.1 15.0----29.84- 82.8 87.8----
2024-05-19 10:42 pm E 11.1 15.0----29.84- 82.8 87.8----
2024-05-19 10:36 pm E 12.0 15.0----29.84- 82.8 87.8----
2024-05-19 10:30 pm E 12.0 15.0----29.84- 82.8 87.8----
2024-05-19 10:24 pm E 12.0 15.9----29.83- 82.8 88.0----
2024-05-19 10:18 pm E 11.1 15.0----29.83-- 88.0----
2024-05-19 10:12 pm E 11.1 15.9----29.83-- 88.0----
2024-05-19 10:06 pm E 12.0 15.0----29.83-- 88.2----
2024-05-19 10:00 pm E 12.0 15.9----29.83+0.04 82.8 88.2----
2024-05-19 09:54 pm E 13.0 15.9----29.83- 82.8 88.2----
2024-05-19 09:48 pm E 13.0 18.1----29.82- 82.8 88.2----
2024-05-19 09:42 pm E 11.1 15.9----29.82- 82.9 88.3----
2024-05-19 09:36 pm E 11.1 15.9----29.82- 82.9 88.3----
2024-05-19 09:30 pm E 12.0 17.1----29.82- 82.8 88.3----
2024-05-19 09:24 pm E 14.0 18.1----29.81- 82.8 88.3----
2024-05-19 09:18 pmENE 12.0 17.1----29.81- 82.8 88.3----
2024-05-19 09:12 pmENE 14.0 18.1----29.81- 82.6 88.3----
2024-05-19 09:06 pmENE 13.0 17.1----29.81- 82.8 88.3----
2024-05-19 09:00 pmENE 13.0 17.1----29.80- 82.8 88.3----
2024-05-19 08:54 pmENE 11.1 17.1----29.80- 83.1 88.3----
2024-05-19 08:48 pm E 13.0 17.1----29.80- 82.9 88.3----
2024-05-19 08:42 pmENE 13.0 15.9----29.80- 82.9 88.3----
2024-05-19 08:36 pmENE 9.9 15.0----29.80- 83.1 88.3----
2024-05-19 08:30 pmENE 12.0 15.0----29.80-- 88.3----
2024-05-19 08:24 pmENE 11.1 15.9----29.80-- 88.3----
2024-05-19 08:18 pmENE 13.0 17.1------- 88.3----
2024-05-19 08:12 pmENE 12.0 15.0------- 88.3----
2024-05-19 08:06 pmENE 11.1 15.0------- 88.3----
2024-05-19 08:00 pmENE 11.1 15.9----29.79-0.01- 88.3----
2024-05-19 07:54 pmENE 11.1 15.0----29.79-- 88.3----
2024-05-19 07:48 pmENE 9.9 15.0----29.79- 83.8 88.3----
2024-05-19 07:42 pmENE 9.9 15.0----29.79- 83.8 88.3----
2024-05-19 07:36 pmENE 12.0 15.9----29.79- 83.8 88.3----
2024-05-19 07:30 pmENE 9.9 15.0----29.79- 84.0 88.3----
2024-05-19 07:24 pmENE 9.9 18.1----29.79- 84.0 88.3----
2024-05-19 07:18 pm---------- 88.3----
2024-05-19 07:12 pm---------- 88.3----
2024-05-19 07:06 pm---------- 88.3----
2024-05-19 07:00 pmENE 9.9 14.0----29.79-0.03- 88.3----
2024-05-19 06:54 pmENE 9.9 15.0----29.79-- 88.3----
2024-05-19 06:48 pmENE 9.9 15.0------------
2024-05-19 06:42 pmENE 12.0 15.9------------
2024-05-19 06:36 pmENE 11.1 15.0------------
2024-05-19 06:30 pmENE 12.0 15.9----29.79- 84.7 88.3----
2024-05-19 06:24 pmENE 12.0 15.9----29.79- 85.1 88.3----
2024-05-19 06:18 pmENE 9.9 15.0----29.79- 85.3 88.5----
2024-05-19 06:12 pm NE 12.0 15.0----29.78- 85.5 88.5----
2024-05-19 06:06 pm E 12.0 15.9----29.78- 85.5 88.5----
2024-05-19 06:00 pmENE 11.1 15.9------- 88.5----
2024-05-19 05:54 pmENE 11.1 14.0------- 88.5----
2024-05-19 05:48 pmENE 12.0 15.0----29.79-- 88.5----
2024-05-19 05:42 pmENE 9.9 15.9----29.79-- 88.5----
2024-05-19 05:36 pmENE 11.1 15.9----29.79-- 88.5----
2024-05-19 05:30 pmENE 8.9 15.0----29.80-- 88.5----
2024-05-19 05:24 pmENE 11.1 15.9----29.80-- 88.5----
2024-05-19 05:18 pm-------29.80- 86.2 88.3----
2024-05-19 05:12 pm-------29.80- 86.4 88.3----
2024-05-19 05:06 pm-------29.80- 86.5 88.3----
2024-05-19 05:00 pmENE 12.0 15.9----29.80-0.06 86.2 88.5----
2024-05-19 04:54 pmENE 11.1 14.0----29.80- 86.7 88.3----
2024-05-19 04:48 pmENE 9.9 13.0----29.81- 86.7 88.3----
2024-05-19 04:42 pm NE 12.0 15.0----29.81- 86.5 88.3----
2024-05-19 04:36 pm NE 11.1 15.0----29.81- 86.5 88.3----
2024-05-19 04:30 pmENE 11.1 15.0----29.81- 86.7 88.3----
2024-05-19 04:24 pmENE 11.1 15.0----29.81- 86.7 88.3----
2024-05-19 04:18 pm NE 12.0 15.0----29.81- 86.4 88.3----
2024-05-19 04:12 pm NE 12.0 14.0----29.82- 86.5 88.3----
2024-05-19 04:06 pm NE 12.0 15.0----29.82- 86.5 88.3----
2024-05-19 04:00 pm NE 12.0 15.0----29.82-0.07 86.4 88.3----
2024-05-19 03:54 pm E 12.0 14.0----29.82- 87.1 88.3----
2024-05-19 03:48 pmENE 11.1 15.0----29.82- 87.1 88.3----
2024-05-19 03:42 pm NE 12.0 15.0----29.82- 86.9 88.2----
2024-05-19 03:36 pmENE 9.9 15.0----29.83- 87.3 88.2----
2024-05-19 03:30 pmENE 11.1 15.9----29.83- 86.9 88.0----
2024-05-19 03:24 pmENE 9.9 15.9----29.83- 87.1 88.0----
2024-05-19 03:18 pmENE 12.0 15.9----29.84- 86.9 88.0----
2024-05-19 03:12 pmENE 8.9 15.9----29.84- 87.4 87.8----
2024-05-19 03:06 pm NE 13.0 15.9----29.84- 86.5 87.8----
2024-05-19 03:00 pmENE 9.9 15.0----29.85-0.06- 87.8----
2024-05-19 02:54 pmENE 8.9 15.0----29.85-- 87.6----
2024-05-19 02:48 pmENE 12.0 13.0----29.85-- 87.6----
2024-05-19 02:42 pmENE 8.9 14.0----29.85-- 87.4----
2024-05-19 02:36 pmENE 11.1 14.0----29.85-- 87.4----
2024-05-19 02:30 pm E 11.1 14.0----29.85- 87.3 87.4----
2024-05-19 02:24 pmENE 11.1 14.0----29.85- 87.3 87.4----
2024-05-19 02:18 pmENE 9.9 14.0----29.85- 87.4 87.4----
2024-05-19 02:12 pmENE 12.0 15.0----29.86- 87.1 87.3----
2024-05-19 02:06 pmENE 9.9 14.0----29.86- 87.4 87.3----
2024-05-19 02:00 pmENE 11.1 14.0----29.86-0.04- 87.1----
2024-05-19 01:54 pmENE 11.1 14.0----29.86-- 87.1----
2024-05-19 01:48 pmENE 8.9 12.0----29.86- 88.0 87.1----
2024-05-19 01:42 pmENE 8.0 13.0----29.87- 88.0 86.9----
2024-05-19 01:36 pmENE 9.9 14.0----29.87- 87.4 86.9----
2024-05-19 01:30 pmENE 9.9 13.0----29.87- 87.3 86.7----
2024-05-19 01:24 pm NE 8.9 12.0----29.87- 87.3 86.7----
2024-05-19 01:18 pmENE 7.0 11.1----29.88- 87.8 86.7----
2024-05-19 01:12 pm E 8.0 11.1----29.88- 87.8 86.7----
2024-05-19 01:06 pmENE 6.0 9.9----29.88- 87.8 86.7----
2024-05-19 01:00 pm E 7.0 11.1----29.89-0.02 87.6 86.7----
2024-05-19 12:54 pm E 8.9 11.1----29.89- 87.4 86.7----
2024-05-19 12:48 pmENE 7.0 9.9----29.89- 86.9 86.5----
2024-05-19 12:42 pmENE 7.0 9.9----29.89- 87.4 86.5----
2024-05-19 12:36 pmENE 8.0 9.9----29.89- 87.1 86.5----
2024-05-19 12:30 pmENE 7.0 9.9----29.90- 87.6 86.4----
2024-05-19 12:24 pmENE 8.0 9.9----29.90- 88.0 86.4----
2024-05-19 12:18 pmENE 6.0 8.9----29.90-- 86.4----
2024-05-19 12:12 pm E 6.0 8.9----29.90-- 86.4----
2024-05-19 12:06 pmENE 8.0 9.9----29.90-- 86.2----
2024-05-19 12:00 pmENE 7.0 9.9----29.90+0.00- 86.2----
2024-05-19 11:54 amENE 8.0 11.1----29.90-- 86.2----
2024-05-19 11:48 amENE 7.0 9.9----29.90- 87.1 86.2----
2024-05-19 11:42 amENE 6.0 8.9----29.91- 86.9 86.0----
2024-05-19 11:36 amENE 7.0 9.9----29.91- 86.7 86.0----
2024-05-19 11:30 amENE 5.1 8.9----29.91- 87.3 86.0----
2024-05-19 11:24 am E 7.0 11.1----29.91- 86.4 86.0----
2024-05-19 11:18 am E 6.0 8.9----29.90- 86.7 86.0----
2024-05-19 11:12 am E 7.0 8.9----29.91- 86.7 86.0----
2024-05-19 11:06 am E 6.0 8.9----29.91- 86.4 86.0----
2024-05-19 11:00 am E 7.0 8.9----29.91+0.02 86.2 85.8----
2024-05-19 10:54 am E 7.0 8.9----29.91- 85.6 85.8----
2024-05-19 10:48 amENE 8.0 9.9----29.91- 85.1 85.8----
2024-05-19 10:42 am E 7.0 8.9----29.91- 85.1 85.8----
2024-05-19 10:36 am E 7.0 9.9----29.91- 84.9 85.8----
2024-05-19 10:30 am E 8.0 11.1----29.91- 84.4 85.6----
2024-05-19 10:24 amENE 7.0 8.9----29.91- 84.7 85.6----
2024-05-19 10:18 am-------29.91- 84.0 85.6----
2024-05-19 10:12 am-------29.91- 84.0 85.6----
2024-05-19 10:06 am-------29.91- 84.4 85.6----
2024-05-19 10:00 am-------29.91+0.03 84.6 85.6----
2024-05-19 09:54 am-------29.91- 84.4 85.6----
2024-05-19 09:48 am-------29.91- 83.8 85.6----
2024-05-19 09:42 am-------29.91- 84.0 85.6----
2024-05-19 09:36 am-------29.91- 84.2 85.6----
2024-05-19 09:30 am E 6.0 8.9----29.91- 84.0 85.6----
2024-05-19 09:24 am E 8.0 11.1----29.91- 83.8 85.6----
2024-05-19 09:18 am E 8.0 9.9----29.91- 83.5 85.5----
2024-05-19 09:12 amESE 8.0 11.1----29.91- 83.1 85.5----
2024-05-19 09:06 amENE 7.0 9.9----29.91- 83.3 85.5----
2024-05-19 09:00 amENE 6.0 8.0----29.90+0.05- 85.5----
2024-05-19 08:54 am E 6.0 8.9----29.90-- 85.5----
2024-05-19 08:48 am-------29.90- 83.1 85.5----
2024-05-19 08:42 am-------29.90- 82.9 85.5----
2024-05-19 08:36 am-------29.89- 82.8 85.5----
2024-05-19 08:30 am E 6.0 8.9----29.89-- 85.5----
2024-05-19 08:24 am E 5.1 8.0----29.89-- 85.5----
2024-05-19 08:18 am E 6.0 8.0----29.89-- 85.5----
2024-05-19 08:12 am E 5.1 8.0----29.89-- 85.5----
2024-05-19 08:06 amENE 5.1 7.0----29.88-- 85.5----
2024-05-19 08:00 amENE 5.1 8.0----29.88+0.04- 85.5----
2024-05-19 07:54 am E 6.0 7.0----29.88-- 85.5----
2024-05-19 07:48 am E 6.0 7.0----29.88- 81.7 85.5----
2024-05-19 07:42 am E 5.1 6.0----29.88- 81.9 85.5----
2024-05-19 07:36 am E 2.9 5.1----29.88- 81.5 85.5----
2024-05-19 07:30 am-------29.88- 81.5-----
2024-05-19 07:24 am-------29.88- 81.5-----
2024-05-19 07:18 am E 5.1 6.0----29.88-- 85.5----
2024-05-19 07:12 amENE 5.1 8.0----29.88-- 85.5----
2024-05-19 07:06 amENE 5.1 7.0----29.88-- 85.5----
2024-05-19 07:00 amENE 5.1 7.0----29.88+0.03 81.3 85.5----
2024-05-19 06:54 am E 5.1 7.0----29.87- 81.3 85.5----
2024-05-19 06:48 am E 5.1 7.0----29.87- 81.3 85.5----
2024-05-19 06:42 am E 5.1 7.0----29.87- 81.1 85.5----
2024-05-19 06:36 am E 6.0 7.0----29.86- 81.0 85.5----
2024-05-19 06:30 am E 5.1 7.0----29.86- 81.0 85.5----
2024-05-19 06:24 am E 5.1 6.0----29.86- 81.1 85.5----
2024-05-19 06:18 am E 5.1 8.0----29.85- 81.1 85.5----
2024-05-19 06:12 am E 5.1 7.0----29.85- 81.1 85.5----
2024-05-19 06:06 am E 6.0 8.0----29.85- 81.1 85.5----
2024-05-19 06:00 am E 7.0 8.0----29.85+0.00------
2024-05-19 05:54 am E 7.0 8.9----29.85-------
2024-05-19 05:48 am E 6.0 8.9----29.85-- 85.5----
2024-05-19 05:42 am E 6.0 7.0----29.85-- 85.5----
2024-05-19 05:36 am E 5.1 7.0----29.85-- 85.5----
2024-05-19 05:30 am E 4.1 6.0----29.85- 81.3 85.5----
2024-05-19 05:24 am E 5.1 7.0----29.85- 81.1 85.5----
2024-05-19 05:18 amENE 5.1 7.0----29.85-- 85.5----
2024-05-19 05:12 amENE 4.1 6.0----29.85-- 85.5----
2024-05-19 05:06 amENE 4.1 6.0----29.85-- 85.5----
2024-05-19 05:00 am-------29.85-0.01------
2024-05-19 04:54 am-------29.84-------
2024-05-19 04:48 amENE 8.0 8.9----29.84- 81.1 85.5----
2024-05-19 04:42 amENE 6.0 7.0----29.84- 81.1 85.5----
2024-05-19 04:36 am E 6.0 8.0----29.84- 81.1 85.6----
2024-05-19 04:30 am E 5.1 8.0----29.84- 81.1 85.6----
2024-05-19 04:24 amENE 4.1 6.0----29.85- 81.1 85.6----
2024-05-19 04:18 amENE 5.1 8.0----29.84- 81.3 85.6----
2024-05-19 04:12 am E 5.1 8.0----29.84- 81.0 85.6----
2024-05-19 04:06 am E 5.1 7.0----29.84- 81.1 85.6----
2024-05-19 04:00 amENE 5.1 7.0----29.84-0.02 81.1 85.6----
2024-05-19 03:54 amENE 5.1 8.0----29.84- 81.1 85.6----
2024-05-19 03:48 amENE 6.0 8.0----29.84- 81.0 85.6----
2024-05-19 03:42 amENE 6.0 7.0----29.84- 81.1 85.6----
2024-05-19 03:36 amENE 4.1 6.0----29.84- 81.3 85.6----
2024-05-19 03:30 amENE 6.0 7.0----29.84- 81.3 85.6----
2024-05-19 03:24 amENE 5.1 7.0----29.84- 81.3 85.6----
2024-05-19 03:18 amENE 5.1 6.0----29.84- 81.5 85.6----
2024-05-19 03:12 amENE 4.1 6.0----29.84- 81.5 85.6----
2024-05-19 03:06 amENE 5.1 8.0----29.85- 81.5 85.6----
2024-05-19 03:00 amENE 6.0 8.0----29.85-0.02 81.5 85.6----
2024-05-19 02:54 amENE 5.1 7.0----29.85- 81.5 85.6----
2024-05-19 02:48 amENE 6.0 7.0----29.85- 81.5 85.6----
2024-05-19 02:42 am E 7.0 8.0----29.85- 81.5 85.6----
2024-05-19 02:36 amENE 5.1 6.0----29.85- 81.5 85.8----
2024-05-19 02:30 amENE 5.1 7.0----29.85- 81.5 85.8----
2024-05-19 02:24 amENE 5.1 7.0----29.85- 81.7 85.8----
2024-05-19 02:18 amENE 4.1 8.0----29.85- 81.7 85.8----
2024-05-19 02:12 amENE 6.0 8.0----29.85- 81.5 85.8----
2024-05-19 02:06 amENE 6.0 8.0----29.86- 81.5 85.8----
2024-05-19 02:00 amENE 7.0 8.9----29.86+0.01 81.3 85.8----
2024-05-19 01:54 amENE 6.0 7.0----29.86- 82.0 85.8----